| time (UTC) | temp C | wind direction | speed KPH | gust KPH | rain 1hr cm | rain 24hr cm | rain mn cm | humidity % | barometer mb |
| 20260503200036 | 20 | 258 | 11.3 | 25.7 | 0.00 | 0.00 | 0.00 | 30 | 1011.3 |
| 20260503200022 | 20 | 258 | 11.3 | 22.5 | 0.00 | 0.00 | 0.00 | 31 | 1003.6 |
| 20260503194541 | 20 | 291 | 6.4 | 19.3 | 0.00 | 0.00 | 0.00 | 35 | 1011.5 |
| 20260503194521 | 20 | 291 | 8.0 | 19.3 | 0.00 | 0.00 | 0.00 | 36 | 1003.7 |
| 20260503193040 | 20 | 240 | 11.3 | 24.1 | 0.00 | 0.00 | 0.00 | 35 | 1011.5 |
| 20260503193034 | 20 | 239 | 12.9 | 24.1 | 0.00 | 0.00 | 0.00 | 36 | 1003.9 |
| 20260503191554 | 18 | 248 | 9.7 | 17.7 | 0.00 | 0.00 | 0.00 | 38 | 1011.6 |
| 20260503191517 | 18 | 248 | 9.7 | 17.7 | 0.00 | 0.00 | 0.00 | 39 | 1003.9 |
| 20260503190040 | 18 | 336 | 6.4 | 27.4 | 0.00 | 0.00 | 0.00 | 39 | 1011.8 |
| 20260503190025 | 18 | 346 | 9.7 | 22.5 | 0.00 | 0.00 | 0.00 | 40 | 1004.1 |
| 20260503184536 | 18 | 232 | 6.4 | 22.5 | 0.00 | 0.00 | 0.00 | 38 | 1011.9 |
| 20260503184517 | 18 | 263 | 6.4 | 22.5 | 0.00 | 0.00 | 0.00 | 39 | 1004.2 |
| 20260503183043 | 18 | 220 | 8.0 | 25.7 | 0.00 | 0.00 | 0.00 | 39 | 1012.0 |
| 20260503183012 | 18 | 208 | 9.7 | 17.7 | 0.00 | 0.00 | 0.00 | 39 | 1004.3 |
| 20260503181535 | 18 | 226 | 8.0 | 30.6 | 0.00 | 0.00 | 0.00 | 45 | 1012.2 |
| 20260503181510 | 18 | 228 | 6.4 | 30.6 | 0.00 | 0.00 | 0.00 | 45 | 1004.5 |
| 20260503180039 | 17 | 223 | 9.7 | 19.3 | 0.00 | 0.00 | 0.00 | 43 | 1012.3 |
| 20260503180007 | 17 | 223 | 8.0 | 17.7 | 0.00 | 0.00 | 0.00 | 42 | 1004.7 |
| 20260503174551 | 17 | 240 | 11.3 | 22.5 | 0.00 | 0.00 | 0.00 | 43 | 1012.4 |
| 20260503174504 | 17 | 251 | 12.9 | 22.5 | 0.00 | 0.00 | 0.00 | 45 | 1004.9 |
| 20260503173035 | 17 | 234 | 11.3 | 24.1 | 0.00 | 0.00 | 0.00 | 41 | 1012.6 |
| 20260503173005 | 17 | 226 | 12.9 | 24.1 | 0.00 | 0.00 | 0.00 | 43 | 1005.1 |
| 20260503171601 | 17 | 246 | 6.4 | 19.3 | 0.00 | 0.00 | 0.00 | 44 | 1005.2 |
| 20260503171536 | 16 | 246 | 9.7 | 19.3 | 0.00 | 0.00 | 0.00 | 42 | 1012.9 |
| 20260503081554 | 8 | 0 | 0.0 | 0.0 | 0.00 | 0.00 | 0.00 | 73 | 1016.4 |
| 20260503081540 | 8 | 250 | 0.0 | 0.0 | 0.00 | 0.00 | 0.00 | 73 | 1009.4 |
| 20260503071558 | 10 | 250 | 1.6 | 11.3 | 0.00 | 0.00 | 0.00 | 57 | 1016.8 |
| 20260503071529 | 10 | 250 | 1.6 | 8.0 | 0.00 | 0.00 | 0.00 | 57 | 1009.9 |
| 20260503054552 | 10 | 215 | 3.2 | 8.0 | 0.00 | 0.00 | 0.00 | 53 | 1017.0 |
| 20260503054507 | 10 | 215 | 4.8 | 8.0 | 0.00 | 0.00 | 0.00 | 53 | 1010.4 |
| 20260503053100 | 10 | 215 | 3.2 | 6.4 | 0.00 | 0.00 | 0.00 | 54 | 1010.5 |
| 20260503053040 | 10 | 215 | 3.2 | 6.4 | 0.00 | 0.00 | 0.00 | 54 | 1017.2 |
| 20260503051557 | 10 | 216 | 4.8 | 11.3 | 0.00 | 0.00 | 0.00 | 52 | 1010.7 |
| 20260503051547 | 10 | 216 | 1.6 | 11.3 | 0.00 | 0.00 | 0.00 | 52 | 1017.3 |
| 20260503050054 | 10 | 219 | 4.8 | 11.3 | 0.00 | 0.00 | 0.00 | 52 | 1011.1 |
| 20260503050037 | 10 | 219 | 3.2 | 11.3 | 0.00 | 0.00 | 0.00 | 52 | 1017.7 |
| 20260503044555 | 10 | 254 | 4.8 | 11.3 | 0.00 | 0.00 | 0.00 | 51 | 1011.3 |
| 20260503044536 | 10 | 254 | 3.2 | 11.3 | 0.00 | 0.00 | 0.00 | 50 | 1017.8 |
| 20260503043052 | 10 | 194 | 9.7 | 16.1 | 0.00 | 0.00 | 0.00 | 51 | 1011.2 |
| 20260503043045 | 10 | 188 | 8.0 | 16.1 | 0.00 | 0.00 | 0.00 | 50 | 1017.7 |
| 20260503041552 | 10 | 193 | 8.0 | 16.1 | 0.00 | 0.00 | 0.00 | 51 | 1011.4 |
| 20260503041543 | 10 | 195 | 8.0 | 17.7 | 0.00 | 0.00 | 0.00 | 51 | 1017.8 |
| 20260503040050 | 10 | 209 | 6.4 | 14.5 | 0.00 | 0.00 | 0.00 | 52 | 1011.5 |
| 20260503040040 | 10 | 209 | 6.4 | 14.5 | 0.00 | 0.00 | 0.00 | 52 | 1017.9 |
| 20260503034601 | 10 | 188 | 6.4 | 11.3 | 0.00 | 0.00 | 0.00 | 51 | 1011.8 |
| 20260503034544 | 10 | 188 | 8.0 | 11.3 | 0.00 | 0.00 | 0.00 | 51 | 1018.1 |
| 20260503033054 | 10 | 192 | 4.8 | 9.7 | 0.00 | 0.00 | 0.00 | 51 | 1012.1 |
| 20260503033050 | 10 | 192 | 4.8 | 9.7 | 0.00 | 0.00 | 0.00 | 50 | 1018.3 |
| 20260503031548 | 10 | 192 | 6.4 | 11.3 | 0.00 | 0.00 | 0.00 | 52 | 1012.2 |
| 20260503031538 | 10 | 192 | 6.4 | 11.3 | 0.00 | 0.00 | 0.00 | 51 | 1018.5 |
| 20260503030044 | 10 | 194 | 6.4 | 9.7 | 0.00 | 0.00 | 0.00 | 50 | 1012.5 |
| 20260503030040 | 10 | 194 | 4.8 | 9.7 | 0.00 | 0.00 | 0.00 | 49 | 1018.8 |
| 20260503024547 | 10 | 226 | 6.4 | 9.7 | 0.00 | 0.00 | 0.00 | 47 | 1018.9 |
| 20260503024540 | 10 | 226 | 6.4 | 9.7 | 0.00 | 0.00 | 0.00 | 48 | 1012.5 |
| 20260503023045 | 11 | 239 | 3.2 | 8.0 | 0.00 | 0.00 | 0.00 | 48 | 1018.9 |
| 20260503023037 | 11 | 239 | 4.8 | 8.0 | 0.00 | 0.00 | 0.00 | 48 | 1012.7 |
| 20260503021539 | 11 | 242 | 3.2 | 6.4 | 0.00 | 0.00 | 0.00 | 48 | 1019.1 |
| 20260503021536 | 11 | 242 | 3.2 | 6.4 | 0.00 | 0.00 | 0.00 | 48 | 1012.9 |
| 20260503020035 | 11 | 243 | 3.2 | 11.3 | 0.00 | 0.00 | 0.00 | 46 | 1019.0 |
| 20260503014538 | 11 | 244 | 3.2 | 6.4 | 0.00 | 0.00 | 0.00 | 44 | 1013.0 |
| 20260503014536 | 11 | 244 | 3.2 | 6.4 | 0.00 | 0.00 | 0.00 | 44 | 1019.1 |
| 20260503013039 | 12 | 244 | 1.6 | 4.8 | 0.00 | 0.00 | 0.00 | 42 | 1019.1 |
| 20260503013034 | 12 | 244 | 0.0 | 4.8 | 0.00 | 0.00 | 0.00 | 42 | 1013.1 |
| 20260503011546 | 12 | 244 | 3.2 | 8.0 | 0.00 | 0.00 | 0.00 | 42 | 1019.2 |
| 20260503011532 | 12 | 244 | 3.2 | 6.4 | 0.00 | 0.00 | 0.00 | 42 | 1013.1 |
| 20260503010039 | 12 | 245 | 1.6 | 8.0 | 0.00 | 0.00 | 0.00 | 42 | 1019.3 |
| 20260503010035 | 12 | 245 | 1.6 | 6.4 | 0.00 | 0.00 | 0.00 | 42 | 1013.3 |
| 20260503004539 | 12 | 244 | 3.2 | 16.1 | 0.00 | 0.00 | 0.00 | 40 | 1019.5 |
| 20260503004532 | 12 | 244 | 1.6 | 11.3 | 0.00 | 0.00 | 0.00 | 41 | 1013.4 |
| 20260503003046 | 13 | 248 | 1.6 | 12.9 | 0.00 | 0.00 | 0.00 | 40 | 1013.5 |
| 20260503003039 | 13 | 247 | 1.6 | 12.9 | 0.00 | 0.00 | 0.00 | 40 | 1019.5 |
| 20260503001547 | 13 | 252 | 4.8 | 14.5 | 0.00 | 0.00 | 0.00 | 37 | 1013.6 |
| 20260503001536 | 13 | 252 | 4.8 | 22.5 | 0.00 | 0.00 | 0.00 | 37 | 1019.5 |
| 20260503000042 | 13 | 213 | 6.4 | 22.5 | 0.00 | 0.00 | 0.00 | 36 | 1019.7 |
| 20260503000027 | 13 | 213 | 9.7 | 19.3 | 0.00 | 0.00 | 0.00 | 37 | 1013.7 |
| 20260502234558 | 13 | 253 | 6.4 | 20.9 | 0.00 | 0.00 | 0.00 | 36 | 1019.8 |
| 20260502234533 | 13 | 253 | 4.8 | 19.3 | 0.00 | 0.00 | 0.00 | 37 | 1013.8 |
| 20260502233039 | 13 | 263 | 9.7 | 22.5 | 0.00 | 0.00 | 0.00 | 36 | 1019.9 |
| 20260502233027 | 13 | 263 | 8.0 | 22.5 | 0.00 | 0.00 | 0.00 | 36 | 1014.1 |
| 20260502231538 | 13 | 254 | 8.0 | 22.5 | 0.00 | 0.00 | 0.00 | 35 | 1019.9 |
| 20260502231524 | 13 | 254 | 9.7 | 22.5 | 0.00 | 0.00 | 0.00 | 35 | 1014.0 |
| 20260502230035 | 14 | 279 | 9.7 | 25.7 | 0.00 | 0.00 | 0.00 | 32 | 1019.8 |
| 20260502230032 | 14 | 279 | 6.4 | 24.1 | 0.00 | 0.00 | 0.00 | 33 | 1014.0 |
| 20260502224535 | 14 | 217 | 12.9 | 27.4 | 0.00 | 0.00 | 0.00 | 32 | 1019.9 |
| 20260502224524 | 14 | 217 | 14.5 | 27.4 | 0.00 | 0.00 | 0.00 | 32 | 1014.0 |
| 20260502223049 | 14 | 258 | 9.7 | 25.7 | 0.00 | 0.00 | 0.00 | 30 | 1020.1 |
| 20260502223021 | 14 | 235 | 9.7 | 25.7 | 0.00 | 0.00 | 0.00 | 31 | 1014.2 |
| 20260502221541 | 14 | 240 | 11.3 | 25.7 | 0.00 | 0.00 | 0.00 | 29 | 1020.1 |
| 20260502221521 | 14 | 240 | 9.7 | 25.7 | 0.00 | 0.00 | 0.00 | 28 | 1014.2 |
| 20260502220038 | 14 | 227 | 6.4 | 17.7 | 0.00 | 0.00 | 0.00 | 30 | 1020.2 |
| 20260502220022 | 14 | 227 | 4.8 | 17.7 | 0.00 | 0.00 | 0.00 | 31 | 1014.3 |
| 20260502214538 | 13 | 269 | 4.8 | 27.4 | 0.00 | 0.00 | 0.00 | 31 | 1020.5 |
| 20260502214516 | 13 | 259 | 4.8 | 27.4 | 0.00 | 0.00 | 0.00 | 31 | 1014.5 |
| 20260502213047 | 14 | 230 | 6.4 | 30.6 | 0.00 | 0.00 | 0.00 | 32 | 1020.4 |
| 20260502213022 | 14 | 230 | 6.4 | 25.7 | 0.00 | 0.00 | 0.00 | 32 | 1014.6 |
| 20260502211542 | 14 | 259 | 14.5 | 27.4 | 0.00 | 0.00 | 0.00 | 28 | 1020.5 |
| 20260502211519 | 14 | 276 | 14.5 | 24.1 | 0.00 | 0.00 | 0.00 | 28 | 1014.7 |
| 20260502210041 | 14 | 222 | 4.8 | 20.9 | 0.00 | 0.00 | 0.00 | 30 | 1020.6 |
| 20260502210014 | 14 | 221 | 4.8 | 20.9 | 0.00 | 0.00 | 0.00 | 31 | 1014.9 |
| 20260502204538 | 13 | 284 | 4.8 | 19.3 | 0.00 | 0.00 | 0.00 | 40 | 1020.8 |
| 20260502204514 | 13 | 284 | 4.8 | 19.3 | 0.00 | 0.00 | 0.00 | 33 | 1015.1 |
| 20260502203045 | 13 | 300 | 6.4 | 19.3 | 0.00 | 0.00 | 0.00 | 37 | 1021.0 |
| 20260502203011 | 13 | 300 | 6.4 | 19.3 | 0.00 | 0.00 | 0.00 | 31 | 1015.3 |
| 20260502201539 | 13 | 323 | 6.4 | 20.9 | 0.00 | 0.00 | 0.00 | 32 | 1021.4 |
| 20260502201509 | 13 | 308 | 3.2 | 19.3 | 0.00 | 0.00 | 0.00 | 32 | 1015.7 |